CPX949 Details

Departure: Chicago O'Hare International Airport (KORD)
Arrival: Incheon International Airport (RKSI) at N/A
Route: PMPKN NEATO DLLAN RONIC BAE GRB YQT YYQ 6130N/10000W 6500N/11000W 6700N/12000W 6800N/13000W 6800N/14000W POTAT NCA30 OME R338 ICEEE R338 MARCC R338 NATES R220 NIKLL R220 NYMPH R220 NIPPI R220 NANNO R220 NODAN NIKON IXE Y88 CHINO Y16 SAPRA Y685 CUN G585 GUKDO GUKDO1N
Notes:


Current Weather Information
KORD 230851Z 23010KT 10SM CLR 06/M01 A2982 RMK AO2 SLP103 T00561011 53008
RKSI 230900Z 06003KT 9999 FEW040 BKN180 19/10 Q1018 NOSIG